Lobo

Go HERE for most recent data if this page is not up to date.

Jump to table bottom
Date/Time Temp deg F RH % 24 Hr Snow (in) Snow Depth (in) H2O (in)
01/21 03:00 18.7 78 2.2 42.2 0.00
01/21 02:00 19.4 84 2.1 43.0 0.00
01/21 01:00 20.1 83 2.1 42.4 0.00
01/21 00:00 20.8 84 2.1 42.8 0.01
01/20 23:00 20.6 94 2.1 41.5 0.00
01/20 22:00 21.7 88 2.1 42.2 0.03
01/20 21:00 21.5 92 1.8 40.7 0.07
01/20 20:00 20.8 96 1.0 41.3 0.02
01/20 19:00 22.1 89 0.8 41.2 0.04
01/20 18:00 20.4 95 0.4 40.6 0.04
01/20 17:00 19.1 89 0.3 40.8 0.05
01/20 16:00 23.0 93 2.1 40.4 0.00
01/20 15:00 24.7 90 1.8 40.0 0.00
01/20 14:00 23.8 88 1.6 39.9 0.00
01/20 13:00 22.7 87 1.6 39.9 0.00
01/20 12:00 21.2 89 1.7 40.1 0.00
01/20 11:00 19.2 89 1.5 40.0 0.00
01/20 10:00 16.8 88 1.3 40.0 0.01
01/20 09:00 15.4 89 0.6 39.4 0.01
01/20 08:00 17.4 81 0.2 39.0 0.00
01/20 07:00 17.5 69 0.2 38.6 0.00
01/20 06:00 14.1 64 0.2 38.5 0.00
01/20 05:00 11.7 82 0.4 38.8 0.00
01/20 04:00 11.9 81 0.3 38.7 0.00
01/20 03:00 11.8 82 0.3 38.6 0.00
01/20 02:00 11.8 84 0.3 38.8 0.00
01/20 01:00 12.1 86 0.3 38.9 0.00
01/20 00:00 12.8 83 0.3 39.0 0.00
.